Tracking 29777 objects as of 6-Oct-2024
HD Live streaming from Space Station
objects crossing your sky now

FALCON 9 R/B

Track FALCON 9 R/B now!
10-day predictions


NORAD ID: 44480
Int'l Code: 2019-050B
Perigee: 206.3 km
Apogee: 21,787.5 km
Inclination: 26.2 °
Period: 379.6 minutes
Semi major axis: 17367 km
RCS: Unknown
Launch date: August 6, 2019
Source: United States (US)
Launch site: AIR FORCE EASTERN TEST RANGE (AFETR)

Note: This is a ROCKET BODY
Your satellite tracking list
Your tracking list is empty




NASA's NSSDC Master Catalog

Two Line Element Set (TLE):
1 44480U 19050B   24279.94255784  .00053790  00000-0  19442-2 0  9999
2 44480  26.1779 260.9436 6212954 349.7898   1.7997  3.79298610 54323
Source of the keplerian elements: AFSPC